EW7946 Senigallia IT current weather conditions

sailwx.info

Wind from 020

Air temperature 10.0° C
Dewpoint 2.8° C

Last reported at 2019-Dec-11 02:03 UTC.
Time now 2019-Dec-11 02:28 UTC

Location: N 43°43' E 013°12'.
View on Google Maps.

See reports from other nearby stations

  
Tides and Currents Weather Stations Pressure Air Temp Water Temp Dewpoint Dewpoint Depression Visibility Wind Speed Wind Dir Waves Ship Positions
date/time (UTC)wind fromknots sea level pressurealtimeterstation pressurevisibilityair tempwater tempwave heightnotes
2019-Dec-11 02:03 020 10.0
2019-Dec-11 01:58 075 10.0
2019-Dec-11 01:53 058 10.0
2019-Dec-11 01:48 359 10.0
2019-Dec-11 01:43 340 10.0
2019-Dec-11 01:38 012 10.0
2019-Dec-11 01:33 071 10.0
2019-Dec-11 01:28 074 10.0
2019-Dec-11 01:23 039 10.0
2019-Dec-11 01:18 053 1 gusting 7 10.0
2019-Dec-11 01:13 027 10.0
2019-Dec-11 01:08 046 10.0
2019-Dec-11 01:03 070 10.0
2019-Dec-11 00:58 041 10.0
2019-Dec-11 00:53 354 10.0
2019-Dec-11 00:48 063 10.0
2019-Dec-11 00:43 122 1 gusting 9 10.0
2019-Dec-11 00:38 068 3 gusting 9 10.6
2019-Dec-11 00:33 055 0 gusting 9 10.0
2019-Dec-11 00:28 053 0 gusting 9 10.6
2019-Dec-11 00:23 054 1 gusting 9 10.6
2019-Dec-11 00:18 051 0 gusting 13 10.6
2019-Dec-11 00:13 049 1 gusting 13 10.6
2019-Dec-11 00:08 064 5 gusting 13 10.6
2019-Dec-11 00:03 074 10.6
2019-Dec-10 23:58 044 1 gusting 11 10.6
2019-Dec-10 23:53 065 5 gusting 12 10.6
2019-Dec-10 23:48 072 3 gusting 14 10.6
2019-Dec-10 23:43 025 2 gusting 14 10.6
2019-Dec-10 23:38 049 1 gusting 13 10.6
2019-Dec-10 23:33 066 10.6
2019-Dec-10 23:28 058 2 gusting 14 10.6
2019-Dec-10 23:23 023 4 gusting 14 10.6
2019-Dec-10 23:18 027 2 gusting 14 10.6
2019-Dec-10 23:13 060 4 gusting 13 10.6
2019-Dec-10 23:08 332 4 gusting 13 10.6
2019-Dec-10 23:03 060 2 gusting 14 10.6
2019-Dec-10 22:58 053 6 gusting 16 10.6
2019-Dec-10 22:53 064 3 gusting 16 10.6
2019-Dec-10 22:48 326 5 gusting 16 10.6
2019-Dec-10 22:43 037 3 gusting 17 10.6
2019-Dec-10 22:38 032 6 gusting 17 10.6
2019-Dec-10 22:33 051 3 gusting 17 11.1
2019-Dec-10 22:28 071 6 gusting 17 11.1
2019-Dec-10 22:23 058 7 gusting 16 11.1
2019-Dec-10 22:18 060 6 gusting 16 11.1
2019-Dec-10 22:13 023 3 gusting 15 11.1
2019-Dec-10 22:08 093 7 gusting 16 11.1
2019-Dec-10 22:03 082 4 gusting 16 11.1
2019-Dec-10 21:58 049 3 gusting 17 11.1
2019-Dec-10 21:53 047 9 gusting 17 11.1
2019-Dec-10 21:48 067 4 gusting 15 11.1
2019-Dec-10 21:43 050 5 gusting 15 11.1
2019-Dec-10 21:38 041 5 gusting 15 11.7
2019-Dec-10 21:33 046 3 gusting 15 11.7
2019-Dec-10 21:28 359 3 gusting 13 11.7
2019-Dec-10 21:24 038 1 gusting 13 11.7
2019-Dec-10 21:13 075 1 gusting 13 11.7
2019-Dec-10 21:08 038 1 gusting 13 11.7
2019-Dec-10 21:03 038 2 gusting 12 11.7
2019-Dec-10 20:59 052 11.7
2019-Dec-10 20:48 040 6 gusting 15 11.7
2019-Dec-10 20:43 062 5 gusting 13 11.7
2019-Dec-10 20:38 049 4 gusting 12 11.7
2019-Dec-10 20:33 035 3 gusting 12 11.7
2019-Dec-10 20:18 082 5 gusting 13 11.7
2019-Dec-10 20:13 038 11.7
2019-Dec-10 20:08 084 5 gusting 16 11.7
2019-Dec-10 20:03 065 5 gusting 14 11.7
2019-Dec-10 19:54 079 1 gusting 14 11.7
2019-Dec-10 19:48 032 0 gusting 17 11.7
2019-Dec-10 19:44 344 2 gusting 17 11.7
2019-Dec-10 19:39 072 8 gusting 17 11.7
2019-Dec-10 19:33 045 5 gusting 17 11.7
2019-Dec-10 19:28 012 4 gusting 19 11.7
2019-Dec-10 19:24 070 8 gusting 19 11.7
2019-Dec-10 19:18 058 1 gusting 17 11.7
2019-Dec-10 19:08 062 3 gusting 19 11.7
2019-Dec-10 19:03 052 7 gusting 19 11.7
2019-Dec-10 18:59 076 9 gusting 17 11.7
2019-Dec-10 18:43 044 7 gusting 19 11.7
2019-Dec-10 18:38 046 3 gusting 16 11.7
2019-Dec-10 18:34 001 4 gusting 14 11.7
2019-Dec-10 18:29 087 3 gusting 17 11.7
2019-Dec-10 18:23 053 3 gusting 17 11.7
2019-Dec-10 18:19 050 3 gusting 17 11.7
2019-Dec-10 18:14 043 2 gusting 20 11.7
2019-Dec-10 18:08 072 5 gusting 20 11.7
2019-Dec-10 17:58 041 3 gusting 24 11.7
2019-Dec-10 17:53 068 13 gusting 25 11.7
2019-Dec-10 17:48 045 6 gusting 25 11.7
2019-Dec-10 17:44 073 10 gusting 22 11.7
2019-Dec-10 17:38 038 12 gusting 22 11.7
2019-Dec-10 17:33 060 11 gusting 20 11.7
2019-Dec-10 17:29 075 12 gusting 20 12.2
2019-Dec-10 17:24 048 9 gusting 20 12.2
2019-Dec-10 17:18 057 10 gusting 22 12.2
2019-Dec-10 17:14 083 10 gusting 22 12.2
2019-Dec-10 17:08 068 10 gusting 19 12.2
2019-Dec-10 17:04 082 6 gusting 24 12.2
2019-Dec-10 16:58 061 12 gusting 24 12.2
2019-Dec-10 16:53 088 6 gusting 25 12.2
2019-Dec-10 16:49 095 14 gusting 25 12.2
2019-Dec-10 16:43 051 4 gusting 25 12.2
2019-Dec-10 16:38 069 9 gusting 21 12.2
2019-Dec-10 16:33 046 0 gusting 19 12.2
2019-Dec-10 16:29 056 9 gusting 19 12.2
2019-Dec-10 16:24 068 3 gusting 17 12.2
2019-Dec-10 16:19 059 4 gusting 23 12.2
2019-Dec-10 16:14 054 12 gusting 23 12.8
2019-Dec-10 16:08 056 4 gusting 17 12.8
2019-Dec-10 16:03 051 2 gusting 17 12.8
2019-Dec-10 15:58 079 7 gusting 19 12.8
2019-Dec-10 15:53 008 7 gusting 19 12.8
2019-Dec-10 15:44 053 4 gusting 17 12.8
2019-Dec-10 15:39 073 4 gusting 17 12.8
2019-Dec-10 15:33 059 3 gusting 16 12.8
2019-Dec-10 15:28 059 2 gusting 16 12.8
2019-Dec-10 15:23 047 2 gusting 19 12.8
2019-Dec-10 15:18 034 2 gusting 19 12.8
2019-Dec-10 15:13 029 6 gusting 20 12.8
2019-Dec-10 15:09 074 12 gusting 20 12.8
2019-Dec-10 15:04 067 6 gusting 19 12.8
2019-Dec-10 14:59 060 4 gusting 21 12.8
2019-Dec-10 14:53 070 4 gusting 21 12.8
2019-Dec-10 14:49 017 3 gusting 24 12.8
2019-Dec-10 14:43 079 10 gusting 24 12.8
2019-Dec-10 14:38 001 8 gusting 21 12.8
2019-Dec-10 14:33 059 6 gusting 21 12.8
2019-Dec-10 14:28 066 8 gusting 20 12.8
2019-Dec-10 14:23 041 5 gusting 23 12.8
2019-Dec-10 14:18 025 4 gusting 23 12.8
2019-Dec-10 14:13 047 5 gusting 22 12.8
2019-Dec-10 14:08 018 11 gusting 25 12.8
2019-Dec-10 14:03 085 8 gusting 26 12.8
2019-Dec-10 13:58 063 13 gusting 26 12.8
2019-Dec-10 13:53 058 6 gusting 19 12.8
2019-Dec-10 13:48 056 6 gusting 19 12.8
2019-Dec-10 13:43 053 6 gusting 19 12.8
2019-Dec-10 13:38 351 5 gusting 23 12.8
2019-Dec-10 13:33 068 10 gusting 23 12.8
2019-Dec-10 13:28 057 8 gusting 25 12.8
2019-Dec-10 13:23 080 13 gusting 26 12.8
2019-Dec-10 13:18 056 13 gusting 26 12.2
2019-Dec-10 13:13 081 10 gusting 22 12.2
2019-Dec-10 13:08 021 7 gusting 19 11.7
2019-Dec-10 13:03 041 7 gusting 17 10.6
2019-Dec-10 12:58 066 4 gusting 13 10.6
2019-Dec-10 12:53 295 2 gusting 13 10.6
2019-Dec-10 12:48 323 6 gusting 12 10.6
2019-Dec-10 12:43 299 3 gusting 14 10.6
2019-Dec-10 12:38 333 6 gusting 14 10.0
2019-Dec-10 12:33 285 1 gusting 14 10.0
2019-Dec-10 12:28 316 4 gusting 14 10.0
2019-Dec-10 12:23 328 6 gusting 11 10.0
2019-Dec-10 12:18 328 3 gusting 13 10.0
2019-Dec-10 12:13 336 5 gusting 13 10.0
2019-Dec-10 12:08 325 4 gusting 13 10.0
2019-Dec-10 12:03 032 6 gusting 17 10.0
2019-Dec-10 11:58 343 6 gusting 17 10.0
2019-Dec-10 11:53 323 6 gusting 13 10.0
2019-Dec-10 11:48 340 2 gusting 16 10.0
2019-Dec-10 11:43 323 7 gusting 17 10.0
2019-Dec-10 11:38 332 9 gusting 17 10.0
2019-Dec-10 11:33 354 7 gusting 18 10.0
2019-Dec-10 11:28 326 10 gusting 17 10.0
2019-Dec-10 11:23 336 6 gusting 17 10.0
2019-Dec-10 11:18 280 6 gusting 15 10.0
2019-Dec-10 11:13 328 4 gusting 16 10.0
2019-Dec-10 11:08 057 6 gusting 18 10.0
2019-Dec-10 11:03 297 6 gusting 18 10.0
2019-Dec-10 10:58 358 5 gusting 14 10.0
2019-Dec-10 10:53 315 6 gusting 14 10.0
2019-Dec-10 10:48 323 8 gusting 16 10.0
2019-Dec-10 10:43 354 9 gusting 17 10.0
2019-Dec-10 10:38 316 6 gusting 17 10.0
2019-Dec-10 10:33 338 6 gusting 19 10.0
2019-Dec-10 10:28 323 6 gusting 19 10.0
2019-Dec-10 10:23 319 6 gusting 18 9.4
2019-Dec-10 10:18 348 7 gusting 17 9.4
2019-Dec-10 10:13 316 6 gusting 18 9.4
2019-Dec-10 10:08 313 10 gusting 19 9.4
2019-Dec-10 10:03 342 9 gusting 19 9.4
2019-Dec-10 09:58 319 7 gusting 18 8.9
2019-Dec-10 09:53 332 8 gusting 22 8.9
2019-Dec-10 09:48 323 8 gusting 22 8.9
2019-Dec-10 09:43 334 10 gusting 19 8.9
2019-Dec-10 09:38 331 9 gusting 19 8.9
2019-Dec-10 09:33 321 10 gusting 18 8.9
2019-Dec-10 09:28 017 6 gusting 16 8.9
2019-Dec-10 09:23 335 7 gusting 16 8.9
2019-Dec-10 09:18 349 7 gusting 16 8.9
2019-Dec-10 09:13 308 5 gusting 14 8.9
2019-Dec-10 09:08 324 6 gusting 16 8.9
2019-Dec-10 09:03 309 6 gusting 16 8.9
2019-Dec-10 08:58 317 6 gusting 19 8.9
2019-Dec-10 08:53 325 11 gusting 19 8.9
2019-Dec-10 08:48 329 8 gusting 16 8.3
2019-Dec-10 08:43 297 5 gusting 19 8.3
2019-Dec-10 08:38 342 8 gusting 19 8.3
2019-Dec-10 08:33 316 6 gusting 13 8.3
2019-Dec-10 08:28 296 7 gusting 18 8.3
2019-Dec-10 08:23 022 9 gusting 18 8.3
2019-Dec-10 08:18 304 6 gusting 13 8.3
2019-Dec-10 08:13 316 6 gusting 13 8.3
2019-Dec-10 08:08 339 5 gusting 15 8.3
2019-Dec-10 08:03 356 5 gusting 17 8.3
2019-Dec-10 07:58 324 7 gusting 19 8.3
2019-Dec-10 07:53 316 7 gusting 19 8.3
2019-Dec-10 07:48 310 6 gusting 19 8.3
2019-Dec-10 07:43 305 3 gusting 17 8.3
2019-Dec-10 07:38 318 7 gusting 15 8.3
2019-Dec-10 07:33 294 6 gusting 13 8.3
2019-Dec-10 07:28 319 5 gusting 16 8.3
2019-Dec-10 07:23 323 6 gusting 16 8.3
2019-Dec-10 07:18 314 4 gusting 13 8.3
2019-Dec-10 07:13 323 6 gusting 13 8.3
2019-Dec-10 07:08 307 4 gusting 12 8.3
2019-Dec-10 07:03 344 6 gusting 15 8.3
2019-Dec-10 06:58 314 6 gusting 15 8.3
2019-Dec-10 06:53 290 3 gusting 13 8.3
2019-Dec-10 06:48 309 4 gusting 18 8.3
2019-Dec-10 06:43 335 7 gusting 18 8.3
2019-Dec-10 06:38 289 8 gusting 14 8.3
2019-Dec-10 06:33 307 5 gusting 15 8.3
2019-Dec-10 06:28 328 7 gusting 15 8.3
2019-Dec-10 06:23 333 5 gusting 13 8.3
2019-Dec-10 06:18 324 6 gusting 14 7.8
2019-Dec-10 06:13 326 8 gusting 14 7.8
2019-Dec-10 06:08 311 5 gusting 12 7.8
2019-Dec-10 06:03 317 6 gusting 12 7.8
2019-Dec-10 05:58 333 4 gusting 11 7.8
2019-Dec-10 05:53 298 6 gusting 11 7.8
2019-Dec-10 05:48 335 5 gusting 11 7.8
2019-Dec-10 05:43 351 2 gusting 12 7.8
2019-Dec-10 05:38 313 5 gusting 13 7.8
2019-Dec-10 05:33 281 6 gusting 14 7.8
2019-Dec-10 05:28 340 4 gusting 14 7.8
2019-Dec-10 05:23 304 6 gusting 13 7.8
2019-Dec-10 05:18 283 5 gusting 11 7.8
2019-Dec-10 05:13 302 5 gusting 11 7.8
2019-Dec-10 05:08 306 6 gusting 13 7.8
2019-Dec-10 05:03 300 6 gusting 13 7.8
2019-Dec-10 04:58 279 5 gusting 11 7.8
2019-Dec-10 04:53 301 6 gusting 11 7.8
2019-Dec-10 04:43 319 5 gusting 8 7.8
2019-Dec-10 04:38 319 3 gusting 7 7.8
2019-Dec-10 04:33 302 5 gusting 9 7.8
2019-Dec-10 04:28 321 2 gusting 9 7.8
2019-Dec-10 04:23 311 4 gusting 9 7.8
2019-Dec-10 04:18 302 6 gusting 9 7.8
2019-Dec-10 04:13 288 4 gusting 7 7.8
2019-Dec-10 04:08 336 1 gusting 8 7.8
2019-Dec-10 04:03 245 4 gusting 10 7.8
2019-Dec-10 03:58 291 6 gusting 10 7.8
2019-Dec-10 03:53 294 5 gusting 9 7.8
2019-Dec-10 03:48 290 3 gusting 10 7.8
2019-Dec-10 03:43 316 3 gusting 10 7.8
2019-Dec-10 03:38 316 4 gusting 10 7.8
2019-Dec-10 03:33 323 4 gusting 10 8.3
2019-Dec-10 03:28 305 0 gusting 6 8.3
2019-Dec-10 03:23 012 2 gusting 8 8.3
2019-Dec-10 03:18 302 4 gusting 8 8.3
2019-Dec-10 03:13 285 1 gusting 8 8.3
2019-Dec-10 01:33 310 4 gusting 7 7.8
2019-Dec-10 01:28 296 2 gusting 6 7.8
2019-Dec-10 01:23 279 1 gusting 8 7.8
2019-Dec-10 01:18 290 3 gusting 8 7.8
2019-Dec-10 01:13 303 3 gusting 7 8.3
2019-Dec-10 01:08 293 3 gusting 8 8.3
2019-Dec-10 01:03 326 4 gusting 8 8.3
2019-Dec-10 00:58 307 4 gusting 8 8.3
2019-Dec-10 00:53 311 3 gusting 7 8.3
2019-Dec-10 00:48 295 3 gusting 8 8.3
2019-Dec-10 00:43 314 3 gusting 8 8.3
2019-Dec-10 00:38 278 2 gusting 6 8.3
2019-Dec-10 00:33 287 2 gusting 7 8.3
2019-Dec-10 00:28 335 4 gusting 7 8.3
2019-Dec-10 00:23 324 3 gusting 7 8.3
2019-Dec-10 00:18 283 2 gusting 9 8.3
2019-Dec-10 00:13 311 6 gusting 9 8.3
2019-Dec-10 00:08 290 2 gusting 6 8.3
2019-Dec-10 00:03 312 2 gusting 5 8.3
2019-Dec-09 23:58 001 0 gusting 5 8.3
2019-Dec-09 23:53 300 3 gusting 5 8.3
2019-Dec-09 23:48 311 8.3
2019-Dec-09 23:43 305 8.3
2019-Dec-09 23:38 314 3 gusting 6 8.3
2019-Dec-09 23:33 300 0 gusting 6 8.3
2019-Dec-09 23:28 301 2 gusting 7 8.3
2019-Dec-09 23:23 292 8.3
2019-Dec-09 23:18 355 1 gusting 7 8.3
2019-Dec-09 23:13 299 3 gusting 8 8.3
2019-Dec-09 23:08 333 0 gusting 5 8.3
2019-Dec-09 23:03 270 0 gusting 5 8.3
2019-Dec-09 22:58 302 0 gusting 5 8.3
2019-Dec-09 22:53 293 0 gusting 6 8.3
2019-Dec-09 22:48 293 1 gusting 6 8.3
2019-Dec-09 22:43 350 2 gusting 6 8.3
2019-Dec-09 22:38 314 2 gusting 9 8.3
2019-Dec-09 22:33 269 2 gusting 9 8.3
2019-Dec-09 22:28 312 1 gusting 6 8.3
2019-Dec-09 22:23 297 1 gusting 5 8.3
2019-Dec-09 22:18 303 1 gusting 6 7.8
2019-Dec-09 22:14 323 2 gusting 6 7.8
2019-Dec-09 22:09 272 0 gusting 3 7.8
2019-Dec-09 22:03 242 7.8
2019-Dec-09 21:59 287 0 gusting 6 7.8
2019-Dec-09 21:54 303 7.2
2019-Dec-09 21:48 305 7.2
2019-Dec-09 21:44 289 6.7
2019-Dec-09 21:39 293 6.7
2019-Dec-09 21:33 287 6.7
2019-Dec-09 21:29 296 6.7
2019-Dec-09 21:24 308 6.7
2019-Dec-09 21:13 278 6.7
2019-Dec-09 21:08 267 6.7
2019-Dec-09 20:58 280 7.2
2019-Dec-09 20:53 258 7.2
2019-Dec-09 20:48 285 7.2
2019-Dec-09 20:38 286 7.2
2019-Dec-09 20:34 266 7.2
2019-Dec-09 20:24 291 7.2
2019-Dec-09 20:18 250 7.2
2019-Dec-09 20:13 269 7.2
2019-Dec-09 20:09 285 7.8
2019-Dec-09 20:03 264 7.8
2019-Dec-09 19:58 289 7.8
2019-Dec-09 19:54 247 7.8
2019-Dec-09 19:49 260 7.8
2019-Dec-09 19:43 289 2 gusting 5 7.8
2019-Dec-09 19:38 288 0 gusting 5 7.8
2019-Dec-09 19:34 290 7.8
2019-Dec-09 19:28 333 7.8
2019-Dec-09 19:23 302 1 gusting 5 7.8
2019-Dec-09 19:19 306 7.8
2019-Dec-09 19:13 314 7.8
2019-Dec-09 19:04 305 7.8
2019-Dec-09 18:58 291 7.8
2019-Dec-09 18:53 290 1 gusting 6 7.8
2019-Dec-09 18:48 281 1 gusting 6 7.8
2019-Dec-09 18:43 304 1 gusting 6 7.8
2019-Dec-09 18:39 295 1 gusting 8 7.8
2019-Dec-09 18:33 298 1 gusting 8 7.8
2019-Dec-09 18:28 310 3 gusting 10 7.8
2019-Dec-09 18:23 293 3 gusting 10 8.3
2019-Dec-09 18:18 316 3 gusting 10 8.3
2019-Dec-09 18:13 318 2 gusting 9 8.3
2019-Dec-09 18:03 328 2 gusting 9 8.3
2019-Dec-09 17:59 352 8.3
2019-Dec-09 17:53 327 6 gusting 11 8.3
2019-Dec-09 17:49 040 5 gusting 11 8.3
2019-Dec-09 17:43 341 3 gusting 11 8.9
2019-Dec-09 17:23 001 5 gusting 10 8.9
2019-Dec-09 17:18 309 4 gusting 10 8.9
2019-Dec-09 17:13 039 6 gusting 10 8.9
2019-Dec-09 17:08 020 5 gusting 11 8.9
2019-Dec-09 17:04 309 2 gusting 8 8.9
2019-Dec-09 16:59 342 4 gusting 11 8.9
2019-Dec-09 16:54 012 2 gusting 9 8.9
2019-Dec-09 16:48 318 3 gusting 11 8.9
2019-Dec-09 16:43 342 6 gusting 10 8.9
2019-Dec-09 16:38 347 5 gusting 10 8.9
2019-Dec-09 16:33 314 5 gusting 12 8.9
2019-Dec-09 16:23 312 6 gusting 13 9.4
2019-Dec-09 16:18 333 4 gusting 13 9.4
2019-Dec-09 16:09 316 3 gusting 10 10.0
2019-Dec-09 16:03 288 4 gusting 10 10.6
2019-Dec-09 15:59 010 11.1
2019-Dec-09 15:53 232 11.1
2019-Dec-09 15:48 257 11.1
2019-Dec-09 15:43 245 11.1
2019-Dec-09 15:38 162 11.1
2019-Dec-09 15:34 292 11.1
2019-Dec-09 15:29 219 0 gusting 3 11.1
2019-Dec-09 15:23 230 11.1
2019-Dec-09 15:19 271 10.6
2019-Dec-09 15:13 283 10.6
2019-Dec-09 15:08 286 10.6
2019-Dec-09 15:03 274 10.6
2019-Dec-09 14:58 219 10.6
2019-Dec-09 14:53 330 0 gusting 7 10.6
2019-Dec-09 14:48 316 1 gusting 7 10.6
2019-Dec-09 14:43 015 2 gusting 8 10.0
2019-Dec-09 14:38 336 5 gusting 13 10.0
2019-Dec-09 14:33 290 4 gusting 16 10.0
2019-Dec-09 14:28 330 6 gusting 16 10.0
2019-Dec-09 14:23 313 6 gusting 17 10.0
2019-Dec-09 14:19 322 8 gusting 17 10.0
2019-Dec-09 14:13 346 6 gusting 13 10.0
2019-Dec-09 14:08 333 2 gusting 10 10.0
2019-Dec-09 14:03 325 4 gusting 11 10.6
2019-Dec-09 13:58 309 4 gusting 12 10.6
2019-Dec-09 13:53 310 3 gusting 12 11.7
2019-Dec-09 13:48 349 3 gusting 9 12.8
2019-Dec-09 13:44 359 2 gusting 8 15.0
2019-Dec-09 13:39 282 16.1
2019-Dec-09 13:33 252 16.1
2019-Dec-09 13:28 220 16.1
2019-Dec-09 13:23 249 16.1
2019-Dec-09 13:18 233 16.1
2019-Dec-09 13:13 241 16.1
2019-Dec-09 13:08 252 16.1
2019-Dec-09 13:03 268 0 gusting 5 16.1
2019-Dec-09 12:58 266 16.1
2019-Dec-09 12:53 253 16.1
2019-Dec-09 12:48 167 16.1
2019-Dec-09 12:43 139 16.1
2019-Dec-09 12:38 204 16.1
2019-Dec-09 12:33 198 16.1
2019-Dec-09 12:28 259 16.1
2019-Dec-09 12:23 266 16.1
2019-Dec-09 12:18 278 16.1
2019-Dec-09 12:13 269 16.1
2019-Dec-09 12:08 228 0 gusting 5 16.1
2019-Dec-09 12:03 234 0 gusting 6 16.7
2019-Dec-09 11:58 226 16.7
2019-Dec-09 11:53 271 0 gusting 5 16.7
2019-Dec-09 11:48 274 16.7
2019-Dec-09 11:43 255 0 gusting 9 16.7
2019-Dec-09 11:38 234 3 gusting 8 16.7
2019-Dec-09 11:33 227 0 gusting 10 16.7
2019-Dec-09 11:28 251 2 gusting 10 16.7
2019-Dec-09 11:23 259 2 gusting 11 16.7
2019-Dec-09 11:18 257 2 gusting 11 16.7
2019-Dec-09 11:13 229 2 gusting 9 16.7
2019-Dec-09 11:08 233 1 gusting 9 16.7
2019-Dec-09 11:03 263 0 gusting 6 16.7
2019-Dec-09 10:58 229 16.7
2019-Dec-09 10:53 262 0 gusting 7 16.1
2019-Dec-09 10:48 243 1 gusting 7 16.1
2019-Dec-09 10:43 277 16.1
2019-Dec-09 10:38 226 0 gusting 6 16.1
2019-Dec-09 10:33 266 0 gusting 5 16.1
2019-Dec-09 10:28 241 16.1
2019-Dec-09 10:23 259 0 gusting 4 16.1
2019-Dec-09 10:18 198 16.1
2019-Dec-09 10:13 231 16.1
2019-Dec-09 10:08 266 16.1
2019-Dec-09 10:03 241 16.1
2019-Dec-09 09:58 224 16.1
2019-Dec-09 09:53 231 16.1
2019-Dec-09 09:48 243 16.1
2019-Dec-09 09:43 257 15.6
2019-Dec-09 09:38 156 15.6
2019-Dec-09 09:33 189 15.6
2019-Dec-09 09:28 167 15.6
2019-Dec-09 09:23 224 15.6
2019-Dec-09 09:18 165 15.6
2019-Dec-09 09:13 162 0 gusting 8 16.1
2019-Dec-09 09:08 165 15.6
2019-Dec-09 09:03 224 15.6
2019-Dec-09 08:58 229 15.0
2019-Dec-09 08:53 154 15.0
2019-Dec-09 08:48 172 14.4
2019-Dec-09 08:43 185 14.4
2019-Dec-09 08:38 178 14.4
2019-Dec-09 08:33 171 0 gusting 4 13.9
2019-Dec-09 08:28 163 13.9
2019-Dec-09 08:23 235 13.9
2019-Dec-09 08:18 157 13.9
2019-Dec-09 08:13 221 13.9
2019-Dec-09 08:08 181 2 gusting 6 13.9
2019-Dec-09 08:03 150 2 gusting 5 13.9
2019-Dec-09 07:58 127 13.9
2019-Dec-09 07:53 124 13.9
2019-Dec-09 07:48 110 0 gusting 4 13.9
2019-Dec-09 07:43 136 13.9
2019-Dec-09 07:38 113 13.9
2019-Dec-09 07:33 134 13.3
2019-Dec-09 07:28 229 1 gusting 6 13.3
2019-Dec-09 07:23 155 13.3
2019-Dec-09 07:18 257 2 gusting 7 13.3
2019-Dec-09 07:13 212 2 gusting 6 13.3
2019-Dec-09 07:08 238 3 gusting 6 13.3
2019-Dec-09 07:03 193 2 gusting 6 13.3
2019-Dec-09 06:58 167 2 gusting 6 13.3
2019-Dec-09 06:53 179 3 gusting 5 13.3
2019-Dec-09 06:48 192 1 gusting 5 12.8
2019-Dec-09 06:43 195 1 gusting 4 12.8
2019-Dec-09 06:38 219 1 gusting 4 12.8
2019-Dec-09 06:33 187 12.2
2019-Dec-09 06:28 176 12.2
2019-Dec-09 06:23 236 11.7
2019-Dec-09 06:18 264 11.7
2019-Dec-09 06:13 203 11.7
2019-Dec-09 06:08 241 11.7
2019-Dec-09 06:03 278 11.7
2019-Dec-09 05:58 288 11.7
2019-Dec-09 05:53 277 12.2
2019-Dec-09 05:48 265 11.7
2019-Dec-09 05:43 274 11.7
2019-Dec-09 05:38 260 11.7
2019-Dec-09 05:33 264 1 gusting 4 11.7
2019-Dec-09 05:28 255 11.7
2019-Dec-09 05:23 271 11.7
2019-Dec-09 05:18 299 0 gusting 3 12.2
2019-Dec-09 05:13 290 12.2
2019-Dec-09 05:08 273 1 gusting 6 12.2
2019-Dec-09 05:03 283 1 gusting 6 12.2
2019-Dec-09 04:58 251 11.7
2019-Dec-09 04:53 266 0 gusting 3 11.7
2019-Dec-09 04:48 243 1 gusting 6 11.7
2019-Dec-09 04:43 290 0 gusting 5 11.7
2019-Dec-09 04:38 288 1 gusting 5 11.1
2019-Dec-09 04:33 273 1 gusting 6 11.1
2019-Dec-09 04:28 259 2 gusting 6 11.1
2019-Dec-09 04:23 240 2 gusting 6 11.7
2019-Dec-09 04:18 288 2 gusting 6 12.2
2019-Dec-09 04:13 242 3 gusting 7 12.2
2019-Dec-09 04:08 243 3 gusting 7 12.2
2019-Dec-09 04:03 242 2 gusting 6 11.7
2019-Dec-09 03:58 247 0 gusting 6 11.1
2019-Dec-09 03:53 230 11.1
2019-Dec-09 03:48 240 11.1
2019-Dec-09 03:43 264 11.1
2019-Dec-09 03:38 238 1 gusting 4 10.6
2019-Dec-09 03:33 231 10.0
2019-Dec-09 03:28 231 9.4
2019-Dec-09 03:23 224 9.4
2019-Dec-09 03:18 254 9.4
2019-Dec-09 03:13 253 9.4
2019-Dec-09 03:08 239 9.4
2019-Dec-09 03:03 260 9.4
2019-Dec-09 02:58 262 9.4
2019-Dec-09 02:53 277 9.4
2019-Dec-09 02:48 233 9.4
2019-Dec-09 02:43 238 9.4
2019-Dec-09 02:38 257 8.9
2019-Dec-09 02:33 245 8.9
2019-Dec-09 02:28 269 8.9
2019-Dec-09 02:23 267 8.9
2019-Dec-09 02:18 237 8.9
2019-Dec-09 02:13 237 8.9
2019-Dec-09 02:08 240 8.9
2019-Dec-09 02:03 252 8.9